Time,TemperatureF,DewpointF,PressureIn,WindDirection,WindDirectionDegrees,WindSpeedMPH,WindSpeedGustMPH,Humidity,HourlyPrecipIn,Conditions,Clouds,dailyrainin,SolarRadiationWatts/m^2,SoftwareType,DateUTC
2013-02-20 00:01:00,56.0,33.0,-100.00,NW,314,8.0,25.0,42,0.00,,,0.00,0.000000,,2013-02-20 07:01:00,
2013-02-20 01:42:00,53.0,33.0,-100.00,WSW,243,3.0,18.0,47,-99.99,,,0.00,0.000000,,2013-02-20 08:42:00,
2013-02-20 01:52:00,53.0,33.0,-100.00,WSW,243,3.0,18.0,47,-99.99,,,0.00,0.000000,,2013-02-20 08:52:00,
2013-02-20 02:01:00,53.0,33.0,-100.00,WSW,243,3.0,18.0,47,-99.99,,,0.00,0.000000,,2013-02-20 09:01:00,
2013-02-20 02:32:00,53.0,37.0,-100.00,SSW,197,2.0,17.0,54,0.00,,,0.00,0.000000,,2013-02-20 09:32:00,
2013-02-20 02:42:00,53.0,37.0,-100.00,SSW,197,2.0,17.0,54,0.00,,,0.00,0.000000,,2013-02-20 09:42:00,
2013-02-20 02:52:00,53.0,37.0,-100.00,SSW,197,2.0,17.0,54,0.00,,,0.00,0.000000,,2013-02-20 09:52:00,
2013-02-20 03:01:00,53.0,37.0,-100.00,SSW,197,2.0,17.0,54,0.00,,,0.00,0.000000,,2013-02-20 10:01:00,
2013-02-20 03:32:00,50.0,35.0,-100.00,ESE,110,2.0,7.0,56,0.00,,,0.00,0.000000,,2013-02-20 10:32:00,
2013-02-20 03:42:00,50.0,35.0,-100.00,ESE,110,2.0,7.0,56,0.00,,,0.00,0.000000,,2013-02-20 10:42:00,
2013-02-20 03:52:00,50.0,35.0,-100.00,ESE,110,2.0,7.0,56,0.00,,,0.00,0.000000,,2013-02-20 10:52:00,
2013-02-20 04:02:00,50.0,35.0,-100.00,ESE,110,2.0,7.0,56,0.00,,,0.00,0.000000,,2013-02-20 11:02:00,
2013-02-20 04:42:00,51.0,38.0,-100.00,WSW,241,1.0,4.0,61,0.00,,,0.00,0.000000,,2013-02-20 11:42:00,
2013-02-20 04:52:00,51.0,38.0,-100.00,WSW,241,1.0,4.0,61,0.00,,,0.00,0.000000,,2013-02-20 11:52:00,
2013-02-20 05:01:00,51.0,38.0,-100.00,WSW,241,1.0,4.0,61,0.00,,,0.00,0.000000,,2013-02-20 12:01:00,
2013-02-20 05:32:00,50.0,44.0,-100.00,WSW,248,5.0,5.0,81,0.00,,,0.00,0.000000,,2013-02-20 12:32:00,
2013-02-20 05:42:00,50.0,44.0,-100.00,WSW,248,5.0,5.0,81,0.00,,,0.00,0.000000,,2013-02-20 12:42:00,
2013-02-20 05:53:00,50.0,44.0,-100.00,WSW,248,5.0,5.0,81,0.00,,,0.00,0.000000,,2013-02-20 12:53:00,
2013-02-20 06:01:00,50.0,44.0,-100.00,WSW,248,5.0,5.0,81,0.00,,,0.00,0.000000,,2013-02-20 13:01:00,
2013-02-20 07:42:00,49.0,41.0,-100.00,WSW,255,7.0,12.0,73,-99.99,,,0.01,0.000000,,2013-02-20 14:42:00,
2013-02-20 07:52:00,49.0,41.0,-100.00,WSW,255,7.0,12.0,73,-99.99,,,0.01,0.000000,,2013-02-20 14:52:00,
2013-02-20 08:01:00,49.0,41.0,-100.00,WSW,255,7.0,12.0,73,-99.99,,,0.01,0.000000,,2013-02-20 15:01:00,
2013-02-20 08:32:00,46.0,32.0,-100.00,West,260,8.0,14.0,58,0.00,,,0.01,0.000000,,2013-02-20 15:32:00,
2013-02-20 08:42:00,46.0,32.0,-100.00,West,260,8.0,14.0,58,0.00,,,0.01,0.000000,,2013-02-20 15:42:00,
2013-02-20 08:52:00,46.0,32.0,-100.00,West,260,8.0,14.0,58,0.00,,,0.01,0.000000,,2013-02-20 15:52:00,
2013-02-20 09:01:00,46.0,32.0,-100.00,West,260,8.0,14.0,58,0.00,,,0.01,0.000000,,2013-02-20 16:01:00,
2013-02-20 09:32:00,48.0,31.0,-100.00,West,271,17.0,17.0,52,0.00,,,-99.99,62.000000,,2013-02-20 16:32:00,
2013-02-20 09:42:00,48.0,31.0,-100.00,West,271,17.0,17.0,52,0.00,,,-99.99,62.000000,,2013-02-20 16:42:00,
2013-02-20 09:52:00,48.0,31.0,-100.00,West,271,17.0,17.0,52,0.00,,,-99.99,62.000000,,2013-02-20 16:52:00,
2013-02-20 10:01:00,48.0,31.0,-100.00,West,271,17.0,17.0,52,0.00,,,-99.99,62.000000,,2013-02-20 17:01:00,
2013-02-20 10:42:00,50.0,33.0,-100.00,West,269,14.0,25.0,51,0.00,,,0.01,285.000000,,2013-02-20 17:42:00,
2013-02-20 10:52:00,50.0,33.0,-100.00,West,269,14.0,25.0,51,0.00,,,0.01,285.000000,,2013-02-20 17:52:00,
2013-02-20 11:02:00,50.0,33.0,-100.00,West,269,14.0,25.0,51,0.00,,,0.01,285.000000,,2013-02-20 18:02:00,
2013-02-20 11:32:00,51.0,29.0,-100.00,WSW,254,13.0,33.0,42,0.00,,,0.01,340.000000,,2013-02-20 18:32:00,
2013-02-20 11:42:00,51.0,29.0,-100.00,WSW,254,13.0,33.0,42,0.00,,,0.01,340.000000,,2013-02-20 18:42:00,
2013-02-20 11:52:00,51.0,29.0,-100.00,WSW,254,13.0,33.0,42,0.00,,,0.01,340.000000,,2013-02-20 18:52:00,
2013-02-20 12:01:00,51.0,29.0,-100.00,WSW,254,13.0,33.0,42,0.00,,,0.01,340.000000,,2013-02-20 19:01:00,
2013-02-20 12:32:00,55.0,26.0,-100.00,West,277,14.0,21.0,32,0.00,,,0.01,663.000000,,2013-02-20 19:32:00,
2013-02-20 12:42:00,55.0,26.0,-100.00,West,277,14.0,21.0,32,0.00,,,0.01,663.000000,,2013-02-20 19:42:00,
2013-02-20 12:52:00,55.0,26.0,-100.00,West,277,14.0,21.0,32,0.00,,,0.01,663.000000,,2013-02-20 19:52:00,
2013-02-20 13:01:00,55.0,26.0,-100.00,West,277,14.0,21.0,32,0.00,,,0.01,663.000000,,2013-02-20 20:01:00,
2013-02-20 13:31:00,55.0,22.0,-100.00,WNW,283,12.0,23.0,27,0.00,,,0.01,771.000000,,2013-02-20 20:31:00,
2013-02-20 13:41:00,55.0,22.0,-100.00,WNW,283,12.0,23.0,27,0.00,,,0.01,771.000000,,2013-02-20 20:41:00,
2013-02-20 13:51:00,55.0,22.0,-100.00,WNW,283,12.0,23.0,27,0.00,,,0.01,771.000000,,2013-02-20 20:51:00,
2013-02-20 14:01:00,55.0,22.0,-100.00,WNW,283,12.0,23.0,27,0.00,,,0.01,771.000000,,2013-02-20 21:01:00,
2013-02-20 14:42:00,59.0,18.0,-100.00,WNW,293,15.0,25.0,20,0.00,,,0.01,912.000000,,2013-02-20 21:42:00,
2013-02-20 14:52:00,59.0,18.0,-100.00,WNW,293,15.0,25.0,20,0.00,,,0.01,912.000000,,2013-02-20 21:52:00,
2013-02-20 15:01:00,59.0,18.0,-100.00,WNW,293,15.0,25.0,20,0.00,,,0.01,912.000000,,2013-02-20 22:01:00,
2013-02-20 15:32:00,61.0,18.0,-100.00,WNW,303,14.0,25.0,19,0.00,,,0.01,978.000000,,2013-02-20 22:32:00,
2013-02-20 15:43:00,61.0,18.0,-100.00,WNW,303,14.0,25.0,19,0.00,,,0.01,978.000000,,2013-02-20 22:43:00,
2013-02-20 15:51:00,61.0,18.0,-100.00,WNW,303,14.0,25.0,19,0.00,,,0.01,978.000000,,2013-02-20 22:51:00,
2013-02-20 16:01:00,61.0,18.0,-100.00,WNW,303,14.0,25.0,19,0.00,,,0.01,978.000000,,2013-02-20 23:01:00,
2013-02-20 16:32:00,62.0,26.0,-100.00,WNW,300,12.0,26.0,25,0.00,,,0.01,871.000000,,2013-02-20 23:32:00,
2013-02-20 16:42:00,62.0,26.0,-100.00,WNW,300,12.0,26.0,25,0.00,,,0.01,871.000000,,2013-02-20 23:42:00,
2013-02-20 16:52:00,62.0,26.0,-100.00,WNW,300,12.0,26.0,25,0.00,,,0.01,871.000000,,2013-02-20 23:52:00,
2013-02-20 17:02:00,62.0,26.0,-100.00,WNW,300,12.0,26.0,25,0.00,,,0.01,871.000000,,2013-02-21 00:02:00,
2013-02-20 17:32:00,59.0,25.0,-100.00,NW,315,9.0,22.0,27,0.00,,,0.01,597.000000,,2013-02-21 00:32:00,
2013-02-20 17:42:00,59.0,25.0,-100.00,NW,315,9.0,22.0,27,0.00,,,0.01,597.000000,,2013-02-21 00:42:00,
2013-02-20 17:52:00,59.0,25.0,-100.00,NW,315,9.0,22.0,27,0.00,,,0.01,597.000000,,2013-02-21 00:52:00,
2013-02-20 18:01:00,59.0,25.0,-100.00,NW,315,9.0,22.0,27,0.00,,,0.01,597.000000,,2013-02-21 01:01:00,
2013-02-20 18:32:00,59.0,26.0,-100.00,WNW,295,6.0,20.0,28,0.00,,,0.01,440.000000,,2013-02-21 01:32:00,
2013-02-20 18:42:00,59.0,26.0,-100.00,WNW,295,6.0,20.0,28,0.00,,,0.01,440.000000,,2013-02-21 01:42:00,
2013-02-20 18:52:00,59.0,26.0,-100.00,WNW,295,6.0,20.0,28,0.00,,,0.01,440.000000,,2013-02-21 01:52:00,
2013-02-20 19:01:00,59.0,26.0,-100.00,WNW,295,6.0,20.0,28,0.00,,,0.01,440.000000,,2013-02-21 02:01:00,
2013-02-20 19:32:00,60.0,29.0,-100.00,West,272,14.0,14.0,31,0.00,,,0.01,183.000000,,2013-02-21 02:32:00,
2013-02-20 19:42:00,60.0,29.0,-100.00,West,272,14.0,14.0,31,0.00,,,0.01,183.000000,,2013-02-21 02:42:00,
2013-02-20 19:52:00,60.0,29.0,-100.00,West,272,14.0,14.0,31,0.00,,,0.01,183.000000,,2013-02-21 02:52:00,
2013-02-20 20:01:00,60.0,29.0,-100.00,West,272,14.0,14.0,31,0.00,,,0.01,183.000000,,2013-02-21 03:01:00,
2013-02-20 20:32:00,58.0,32.0,-100.00,West,263,9.0,24.0,37,0.00,,,0.01,11.000000,,2013-02-21 03:32:00,
2013-02-20 20:42:00,58.0,32.0,-100.00,West,263,9.0,24.0,37,0.00,,,0.01,11.000000,,2013-02-21 03:42:00,
2013-02-20 20:52:00,58.0,32.0,-100.00,West,263,9.0,24.0,37,0.00,,,0.01,11.000000,,2013-02-21 03:52:00,
2013-02-20 21:01:00,58.0,32.0,-100.00,West,263,9.0,24.0,37,0.00,,,0.01,11.000000,,2013-02-21 04:01:00,
2013-02-20 21:32:00,54.0,31.0,-100.00,West,263,8.0,18.0,42,0.00,,,0.01,0.000000,,2013-02-21 04:32:00,
2013-02-20 21:42:00,54.0,31.0,-100.00,West,263,8.0,18.0,42,0.00,,,0.01,0.000000,,2013-02-21 04:42:00,
2013-02-20 21:52:00,54.0,31.0,-100.00,West,263,8.0,18.0,42,0.00,,,0.01,0.000000,,2013-02-21 04:52:00,
2013-02-20 22:02:00,54.0,31.0,-100.00,West,263,8.0,18.0,42,0.00,,,0.01,0.000000,,2013-02-21 05:02:00,
2013-02-20 22:37:00,54.0,34.0,-100.00,West,271,9.0,13.0,47,0.00,,,0.01,0.000000,,2013-02-21 05:37:00,
2013-02-20 22:46:00,54.0,34.0,-100.00,West,271,9.0,13.0,47,0.00,,,0.01,0.000000,,2013-02-21 05:46:00,
2013-02-20 22:58:00,54.0,34.0,-100.00,West,271,9.0,13.0,47,0.00,,,0.01,0.000000,,2013-02-21 05:58:00,
2013-02-20 23:31:00,51.0,34.0,-100.00,WNW,288,4.0,13.0,51,0.00,,,0.01,0.000000,,2013-02-21 06:31:00,
2013-02-20 23:41:00,51.0,34.0,-100.00,WNW,288,4.0,13.0,51,0.00,,,0.01,0.000000,,2013-02-21 06:41:00,
2013-02-20 23:51:00,51.0,34.0,-100.00,WNW,288,4.0,13.0,51,0.00,,,0.01,0.000000,,2013-02-21 06:51:00,